TimeEDT,TemperatureF,Dew PointF,Humidity,Sea Level PressureIn,VisibilityMPH,Wind Direction,Wind SpeedMPH,Gust SpeedMPH,PrecipitationIn,Events,Conditions,WindDirDegrees,DateUTC
12:52 AM,78.1,73.0,84,29.92,9.0,SSW,5.8,-,N/A,,Overcast,210,2013-06-26 04:52:00
1:31 AM,78.8,73.4,83,29.97,9.0,WNW,17.3,20.7,N/A,Thunderstorm,Thunderstorm,290,2013-06-26 05:31:00
1:52 AM,72.0,64.9,78,29.94,5.0,West,11.5,26.5,0.00,Rain-Thunderstorm,Heavy Thunderstorms and Rain,270,2013-06-26 05:52:00
2:52 AM,69.1,66.9,93,29.91,10.0,South,8.1,-,0.08,Thunderstorm,Thunderstorm,190,2013-06-26 06:52:00
3:52 AM,69.1,68.0,96,29.91,2.5,WNW,17.3,-,0.09,Rain-Thunderstorm,Heavy Thunderstorms and Rain,300,2013-06-26 07:52:00
4:24 AM,69.8,68.0,94,29.96,4.0,Calm,Calm,-,0.18,Rain-Thunderstorm,Thunderstorms and Rain,0,2013-06-26 08:24:00
4:52 AM,68.0,68.0,100,29.94,2.5,West,5.8,-,0.27,Rain,Rain,270,2013-06-26 08:52:00
5:09 AM,68.0,68.0,100,29.97,4.0,WSW,5.8,-,0.03,Rain,Rain,240,2013-06-26 09:09:00
5:31 AM,68.0,66.2,94,29.97,6.0,SW,5.8,-,0.06,Rain,Light Rain,220,2013-06-26 09:31:00
5:52 AM,66.9,66.0,97,29.94,5.0,SW,8.1,-,0.07,Rain,Light Rain,230,2013-06-26 09:52:00
6:15 AM,66.2,66.2,100,29.95,5.0,SSW,5.8,-,0.04,Rain,Light Rain,210,2013-06-26 10:15:00
6:52 AM,66.9,66.9,100,29.90,6.0,SSE,3.5,-,0.06,Rain,Light Rain,150,2013-06-26 10:52:00
7:52 AM,68.0,66.9,96,29.90,8.0,SSW,9.2,-,0.00,,Mostly Cloudy,200,2013-06-26 11:52:00
8:52 AM,69.1,68.0,96,29.92,8.0,SSW,5.8,-,N/A,,Overcast,200,2013-06-26 12:52:00
9:52 AM,72.0,68.0,87,29.93,10.0,SSW,8.1,-,N/A,,Overcast,210,2013-06-26 13:52:00
10:52 AM,73.9,70.0,87,29.92,10.0,SSW,8.1,-,N/A,,Mostly Cloudy,200,2013-06-26 14:52:00
11:52 AM,78.1,70.0,76,29.91,10.0,South,10.4,-,N/A,,Overcast,190,2013-06-26 15:52:00
12:52 PM,80.1,72.0,76,29.89,10.0,South,10.4,-,N/A,,Mostly Cloudy,180,2013-06-26 16:52:00
1:52 PM,82.0,73.0,74,29.89,10.0,SW,9.2,-,N/A,,Mostly Cloudy,230,2013-06-26 17:52:00
2:52 PM,82.0,73.0,74,29.86,10.0,SW,8.1,-,N/A,,Mostly Cloudy,220,2013-06-26 18:52:00
3:52 PM,82.9,73.0,72,29.83,10.0,SSW,8.1,-,N/A,,Mostly Cloudy,200,2013-06-26 19:52:00
4:16 PM,80.6,71.6,74,29.84,9.0,SSW,6.9,-,0.00,Rain-Thunderstorm,Light Thunderstorms and Rain,210,2013-06-26 20:16:00
4:52 PM,69.1,64.9,87,29.86,0.8,West,15.0,62.1,0.30,Rain-Thunderstorm,Thunderstorms and Rain,280,2013-06-26 20:52:00
4:56 PM,68.0,66.2,94,29.87,0.2,Variable,4.6,35.7,0.28,Rain-Thunderstorm,Thunderstorms and Rain,0,2013-06-26 20:56:00
5:05 PM,69.8,66.2,88,29.85,4.0,ESE,9.2,-,0.50,Rain-Thunderstorm,Light Thunderstorms and Rain,110,2013-06-26 21:05:00
5:18 PM,71.6,69.8,94,29.87,2.5,South,12.7,21.9,0.54,Rain-Thunderstorm,Light Thunderstorms and Rain,190,2013-06-26 21:18:00
5:20 PM,71.6,69.8,94,29.86,2.5,SSW,9.2,21.9,0.58,Rain-Thunderstorm,Light Thunderstorms and Rain,200,2013-06-26 21:20:00
5:21 PM,71.6,69.8,94,29.86,1.5,SSW,6.9,21.9,0.60,Rain-Thunderstorm,Light Thunderstorms and Rain,200,2013-06-26 21:21:00
5:52 PM,70.0,69.1,97,29.83,4.0,SW,3.5,-,0.95,Rain-Thunderstorm,Light Thunderstorms and Rain,230,2013-06-26 21:52:00
6:35 PM,69.8,69.8,100,29.83,4.0,South,8.1,-,0.11,Rain,Light Rain,190,2013-06-26 22:35:00
6:47 PM,69.8,69.8,100,29.83,4.0,SSW,8.1,-,0.15,Rain,Light Rain,200,2013-06-26 22:47:00
6:52 PM,70.0,70.0,100,29.81,4.0,SSW,9.2,-,0.17,Rain,Light Rain,200,2013-06-26 22:52:00
7:52 PM,69.1,69.1,100,29.81,10.0,South,6.9,-,0.06,Rain-Thunderstorm,Light Thunderstorms and Rain,180,2013-06-26 23:52:00
8:52 PM,68.0,68.0,100,29.81,4.0,SSW,5.8,-,0.04,Rain-Thunderstorm,Light Thunderstorms and Rain,210,2013-06-27 00:52:00
9:36 PM,68.0,66.2,94,29.81,5.0,SSW,8.1,-,0.10,Rain,Light Rain,200,2013-06-27 01:36:00
9:50 PM,68.0,66.2,94,29.81,9.0,SSE,5.8,-,0.12,Rain-Thunderstorm,Light Thunderstorms and Rain,160,2013-06-27 01:50:00
9:52 PM,68.0,66.9,96,29.78,9.0,SSE,4.6,-,0.12,Rain-Thunderstorm,Light Thunderstorms and Rain,160,2013-06-27 01:52:00
10:09 PM,68.0,68.0,100,29.80,6.0,South,5.8,-,0.02,Rain-Thunderstorm,Light Thunderstorms and Rain,190,2013-06-27 02:09:00
10:45 PM,68.0,68.0,100,29.81,9.0,SE,3.5,-,0.05,Rain,Light Rain,130,2013-06-27 02:45:00
10:52 PM,68.0,68.0,100,29.80,8.0,South,5.8,-,0.06,Rain,Light Rain,190,2013-06-27 02:52:00
11:52 PM,68.0,66.9,96,29.80,10.0,SSW,4.6,-,0.01,,Overcast,200,2013-06-27 03:52:00